Temperature
10 10 10 10 10 10 10 10 11 10 10 10 10 10 10 11 11 11 11 11 11 11 11 11 11 11 11 11 11 11 11 10 10 10 10 10 10 9 9 9 9 9 9
10 10 10 10 10 10 10 10 10 10 10 10 10 10 10 10 11 11 11 11 11 11 11 11 11 11 11 11 11 11 10 10 10 10 9 9 9 9 9 9 9 9 9
9 10 10 10 10 10 10 10 10 10 9 9 9 9 9 10 10 10 10 11 11 11 11 11 11 11 11 11 11 11 11 10 10 10 10 9 9 9 9 9 9 9 9
9 9 9 9 10 10 10 10 9 9 9 9 9 9 9 9 10 10 10 10 10 11 11 11 11 11 11 11 11 11 11 11 10 10 10 10 10 10 9 9 9 9 9
9 9 9 9 9 9 9 9 9 9 9 9 9 9 9 9 10 10 10 10 10 10 11 11 11 11 11 11 11 10 10 11 10 10 10 10 10 10 10 9 9 9 9
9 9 9 9 9 9 9 9 9 9 9 9 9 9 9 9 9 10 10 10 10 10 10 11 11 11 10 10 11 10 10 11 11 10 10 10 10 10 10 10 10 9 9
8 8 8 8 9 8 8 8 8 8 8 9 9 9 9 9 9 10 9 9 10 10 10 10 10 11 11 11 11 10 10 10 11 11 10 10 10 10 10 10 10 9 9
8 8 8 8 8 8 8 8 8 8 8 8 8 9 9 9 9 9 9 10 10 10 10 10 10 11 11 11 11 11 11 10 10 10 10 10 10 10 10 10 10 9 9
7 7 7 8 8 8 8 8 8 8 8 8 8 9 9 9 9 9 9 10 10 10 10 10 10 10 10 11 11 11 11 10 10 10 10 10 10 10 10 10 10 9 8
7 7 7 7 7 8 8 8 7 8 8 8 8 8 8 9 9 9 9 9 10 10 10 10 10 10 10 10 10 11 10 10 10 10 10 10 10 9 9 9 9 9 9
6 6 6 7 7 7 7 7 7 7 7 8 8 8 8 9 9 9 9 9 9 10 10 10 10 10 10 10 10 10 10 10 10 10 9 9 10 9 9 9 9 9 8
6 6 6 6 6 7 7 7 7 7 7 7 7 8 8 8 8 9 9 9 9 9 10 10 10 10 10 10 10 10 10 10 10 10 9 10 9 9 9 9 9 8 8
6 6 6 6 6 6 6 6 7 7 7 7 7 7 8 8 8 8 8 9 9 9 10 9 10 10 10 10 10 10 10 10 10 10 10 10 9 9 9 9 8 8 8
5 5 5 5 5 5 6 6 6 6 6 7 7 7 7 7 8 8 8 8 8 9 9 9 10 10 10 10 10 10 10 10 10 10 10 10 9 9 9 9 8 8 8
5 5 4 4 5 5 5 5 5 6 6 6 6 7 7 7 7 7 8 8 8 9 9 9 9 9 10 10 10 10 10 10 10 9 9 9 9 9 9 8 8 8 7
4 4 4 4 4 4 5 5 5 5 6 6 6 6 6 7 7 7 7 7 8 8 9 9 9 9 9 10 10 10 10 10 9 9 9 9 9 9 9 8 8 8 7
4 4 4 4 4 4 4 5 5 5 5 5 5 6 6 6 6 6 6 7 7 8 8 8 9 9 9 9 10 10 10 9 9 9 9 9 9 8 8 8 8 7 7
4 3 3 3 4 4 4 4 4 5 5 5 5 5 5 5 6 6 6 6 7 7 7 8 8 9 9 9 9 9 9 9 9 9 9 8 8 8 8 8 7 7 7
3 3 3 3 3 4 4 4 4 4 4 5 5 5 5 5 5 5 5 6 6 7 7 7 8 8 8 9 9 9 9 9 9 8 8 8 8 8 8 7 7 7 7
3 3 3 3 3 3 3 3 4 4 4 4 4 4 4 5 5 5 5 5 6 6 7 7 7 7 8 8 8 8 8 8 8 8 8 8 8 8 8 7 7 7 6
2 2 2 2 3 3 3 3 3 3 3 3 4 4 4 4 5 5 5 5 6 6 6 6 7 7 7 8 8 8 8 8 8 8 8 8 8 8 8 7 7 7 7
2 2 2 2 2 2 2 2 3 3 3 3 3 4 4 4 4 5 5 5 5 5 6 6 6 6 7 7 7 7 8 8 8 8 8 8 7 7 7 7 7 6 6
1 1 1 1 2 2 2 2 2 2 2 3 3 3 4 4 4 4 5 5 5 5 5 5 5 6 6 6 7 7 7 7 7 7 7 7 7 7 7 6 6 6 6
1 1 1 1 1 2 2 2 2 2 2 2 2 3 3 4 4 4 4 5 5 5 5 5 5 5 6 6 6 6 7 7 7 7 7 7 6 6 6 6 5 5 5
1 0 0 0 1 1 1 2 2 2 2 2 2 2 3 3 3 4 4 4 4 4 4 4 5 5 5 6 6 6 6 6 6 6 6 6 5 5 5 5 5 5 4
0 0 0 0 1 1 1 1 2 2 2 2 2 2 2 3 3 3 4 4 4 4 4 4 4 4 5 5 5 6 6 6 6 6 5 5 5 5 5 5 5 4 4
Wind_Speed
7 7 7 7 6 6 5 7 7 7 6 6 6 7 7 7 7 8 12 14 14 14 13 10 10 10 11 11 12 8 9 7 6 5 3 1 0 3 4 4 5 6 8
5 5 5 5 6 6 5 6 8 8 8 7 7 7 7 7 7 8 10 13 14 14 13 12 11 10 10 12 12 10 8 6 7 6 5 2 1 2 3 4 5 5 6
6 5 5 5 5 6 6 6 7 8 9 8 6 5 5 5 6 8 9 11 14 14 13 13 12 11 11 12 13 13 10 9 7 7 6 5 5 2 2 3 4 5 4
5 5 5 5 6 6 5 5 7 8 8 8 8 9 9 8 8 8 8 9 12 13 14 13 13 13 11 12 14 13 10 12 9 6 3 3 5 4 2 2 3 4 5
5 5 5 5 6 4 4 5 6 8 8 8 10 10 10 8 6 7 8 9 9 12 14 14 13 12 11 13 14 13 12 10 10 8 5 3 2 3 4 3 3 2 3
6 6 5 5 4 3 3 4 6 8 8 8 9 11 12 10 9 9 10 9 8 10 13 13 13 13 11 13 14 15 14 12 10 9 6 6 5 5 4 4 4 3 2
6 5 5 5 4 4 4 4 6 8 8 9 10 11 13 13 13 11 11 10 9 9 13 12 13 13 13 13 13 14 14 13 13 11 8 6 5 4 4 4 3 2 1
7 6 6 5 5 5 5 5 6 6 7 9 10 10 10 11 10 11 11 11 10 10 12 12 13 13 14 14 14 13 13 12 13 12 10 7 6 5 4 5 5 3 1
8 7 7 6 6 6 6 6 6 5 6 7 7 8 9 10 10 11 11 10 10 9 12 13 13 13 14 14 15 13 14 13 12 11 10 8 6 5 5 5 5 6 5
9 8 8 8 7 6 6 5 5 5 6 6 5 5 7 9 9 9 11 10 11 11 12 13 13 13 14 15 14 13 13 13 12 10 11 9 6 6 5 5 4 4 5
11 11 10 9 8 7 6 5 6 5 5 4 4 4 5 5 7 8 9 10 10 12 13 13 13 13 14 14 14 14 14 14 13 12 12 11 9 7 6 5 5 4 4
11 10 10 8 8 8 7 6 6 4 4 3 3 3 3 3 5 6 6 8 10 12 13 13 13 14 14 15 16 16 15 15 15 14 13 12 9 9 7 6 6 5 4
12 11 9 9 9 8 7 5 5 4 3 3 3 3 3 4 4 5 5 6 7 9 11 12 13 13 14 14 15 15 15 15 15 14 14 13 12 10 8 8 7 5 4
11 10 10 9 9 9 8 6 6 4 3 3 3 3 3 4 4 4 4 5 6 8 9 11 12 12 13 14 14 14 14 13 13 12 12 12 13 12 11 9 8 7 6
10 11 10 10 9 9 8 7 7 5 3 3 3 3 3 2 2 2 3 4 5 6 7 9 10 11 11 12 13 13 13 13 12 11 11 11 13 14 12 9 9 9 7
10 11 11 11 11 10 9 8 7 6 4 3 3 3 2 2 2 2 2 3 4 4 5 7 9 10 9 13 15 13 12 13 13 12 11 11 12 14 15 15 14 13 10
10 11 11 11 10 10 8 7 6 6 4 4 3 2 2 2 3 3 3 3 3 3 4 5 6 9 10 13 16 15 12 12 12 12 11 9 9 12 10 11 11 11 11
10 10 10 10 10 9 9 7 6 5 4 4 4 3 2 3 3 2 3 3 3 4 5 5 5 6 10 14 15 14 11 10 11 11 11 11 10 10 11 9 8 6 6
9 9 9 9 9 9 9 7 6 5 4 5 4 3 3 4 4 3 3 3 3 3 3 4 5 5 8 12 14 13 8 9 10 10 10 11 11 15 16 12 9 7 4
8 8 9 8 8 9 8 6 6 5 5 5 5 4 3 4 4 4 3 3 3 3 2 3 3 4 6 10 12 13 8 9 8 8 9 13 13 17 18 13 11 10 7
9 8 8 8 8 8 7 7 6 6 6 5 4 4 4 4 4 3 3 3 2 1 1 2 2 3 6 9 12 12 8 8 9 8 8 8 15 17 17 14 10 12 10
9 8 8 9 9 7 7 7 6 6 6 4 4 4 4 4 3 3 2 2 2 2 1 1 1 2 3 6 9 12 10 8 8 8 7 8 15 16 16 12 12 15 13
8 8 8 10 9 8 7 7 7 6 5 4 5 5 5 4 3 2 2 2 2 2 2 2 2 1 1 4 8 10 11 10 6 6 10 12 15 15 11 13 16 14 9
9 8 8 9 10 9 7 6 6 5 5 5 4 4 4 4 3 2 2 2 2 2 2 3 2 2 2 2 4 5 7 8 6 6 9 12 13 10 10 11 10 7 7
8 7 8 9 10 9 7 6 5 4 4 4 4 4 4 3 3 4 3 3 3 4 4 4 3 4 4 5 6 6 6 6 6 7 5 5 7 6 6 6 6 6 6
8 8 8 9 9 8 8 6 5 4 4 4 4 3 3 3 3 3 4 3 4 4 5 5 5 4 5 5 6 6 8 11 13 9 7 7 7 8 8 8 7 6 6
Wind_Direction
247 242 236 237 240 235 227 218 208 200 196 202 200 202 206 203 201 201 196 191 189 190 190 187 185 185 181 178 172 165 164 163 152 131 115 34 216 193 192 183 178 186 190
274 265 249 242 240 230 223 225 215 202 200 207 208 207 209 206 203 202 199 194 191 192 193 187 185 187 184 177 176 165 162 165 162 150 142 146 286 257 209 191 187 187 181
260 256 250 245 235 231 230 235 229 212 208 207 209 211 210 201 204 201 198 199 194 195 195 189 187 186 187 184 181 175 166 168 173 166 156 162 199 209 245 211 195 186 180
275 262 257 251 237 237 239 243 240 221 215 208 208 210 212 210 211 204 203 200 198 197 195 191 190 188 191 187 184 180 174 166 173 179 178 163 150 157 190 242 212 194 192
282 277 269 256 250 242 248 253 251 228 217 215 215 216 216 215 209 204 202 202 205 201 194 193 192 191 194 191 184 180 180 177 175 175 166 156 143 141 155 194 207 209 212
301 290 280 274 271 258 260 269 259 238 219 218 219 218 213 208 206 208 204 204 208 204 197 195 195 191 194 193 187 184 183 184 179 176 173 167 165 175 166 181 194 202 216
310 307 304 298 290 278 268 278 268 246 228 225 223 222 212 206 208 209 208 207 211 208 199 196 198 194 195 192 188 185 186 185 182 183 186 184 182 160 157 160 171 184 208
325 316 305 297 289 279 271 276 269 265 242 232 231 223 215 212 212 211 210 212 213 208 198 197 201 199 195 191 188 187 188 187 188 187 185 186 188 173 167 160 157 163 198
323 317 310 300 294 288 281 274 263 264 258 248 239 228 221 219 217 212 212 215 211 208 200 200 204 201 197 193 188 190 188 187 190 189 187 189 190 180 177 166 164 167 191
331 326 323 319 309 302 295 295 279 270 264 243 236 239 236 227 218 216 217 213 210 204 200 200 203 203 198 194 190 190 186 186 190 188 187 192 192 182 176 176 174 174 181
329 325 323 322 321 321 318 303 292 283 278 257 243 241 242 236 227 221 220 216 211 203 204 201 202 203 199 193 191 192 185 188 191 190 190 194 186 185 184 175 175 181 174
324 320 318 325 331 325 317 308 307 300 286 283 272 255 255 240 229 224 226 220 214 207 206 202 202 203 198 193 191 190 189 190 193 194 192 193 187 187 183 181 184 186 182
324 325 326 328 326 322 318 311 311 307 302 302 290 263 255 246 232 228 228 230 220 211 206 204 204 203 197 192 193 192 190 192 195 194 193 191 186 191 188 184 187 186 178
325 331 333 331 326 324 322 322 314 302 305 307 305 292 264 251 237 228 228 233 227 217 209 209 205 202 193 190 192 191 189 189 193 194 193 191 191 192 186 188 188 179 174
330 332 333 329 326 328 328 327 322 313 303 300 301 284 281 275 267 243 234 237 237 226 218 215 206 197 190 190 186 187 185 186 188 191 192 192 190 187 186 186 185 179 180
325 327 329 328 325 324 324 323 323 316 309 300 298 293 298 295 279 271 254 250 243 230 223 221 206 192 194 189 183 183 185 185 187 189 190 191 189 186 184 182 181 180 183
321 323 323 320 318 316 315 314 313 313 314 311 303 298 300 291 273 276 256 252 254 245 234 226 208 197 193 184 182 180 187 187 188 189 189 188 187 183 184 179 177 182 181
320 320 320 317 315 314 313 310 316 318 315 317 311 302 299 293 280 271 269 255 252 236 235 218 212 202 192 182 179 177 185 186 187 188 187 184 182 181 174 170 175 184 189
310 311 312 312 314 315 316 314 320 319 319 316 312 299 291 290 283 268 270 265 255 250 230 209 205 203 190 179 176 174 182 185 187 186 185 183 183 176 167 167 170 165 163
313 315 317 319 320 319 321 316 312 312 309 304 299 297 289 286 280 270 261 276 261 249 226 221 212 203 193 179 174 172 181 184 182 182 185 183 181 175 170 174 174 174 171
308 315 319 319 316 319 324 315 310 306 301 304 305 305 302 293 284 279 269 276 270 245 223 223 227 208 193 180 175 174 182 183 179 182 187 187 176 173 173 174 179 174 158
310 316 317 313 312 314 320 313 301 300 304 308 307 307 307 303 293 279 279 278 252 209 226 216 250 208 188 179 180 180 180 172 177 183 182 178 170 169 169 172 164 152 145
304 309 309 309 310 311 310 303 298 305 311 311 304 303 305 302 294 270 264 279 235 202 224 217 241 237 201 182 179 178 172 165 168 171 166 164 164 163 165 160 155 150 151
301 305 309 307 306 306 304 294 294 300 297 293 292 296 303 306 306 287 258 256 243 215 219 227 231 233 212 195 185 182 169 154 147 145 148 150 153 151 151 154 154 154 161
297 299 296 296 297 302 304 302 293 299 299 297 299 303 299 295 301 303 279 260 250 236 226 225 218 217 223 218 196 187 179 168 155 140 137 142 150 153 153 150 148 151 152
296 298 299 297 298 302 302 305 300 296 296 300 299 293 292 293 294 306 316 302 262 260 248 238 232 234 226 210 190 179 169 157 151 145 154 160 162 164 165 163 161 161 160
Height
1428 1428 1428 1428 1428 1427 1427 1427 1428 1429 1431 1433 1434 1435 1437 1439 1442 1445 1448 1451 1454 1458 1461 1464 1467 1470 1473 1477 1482 1486 1490 1495 1499 1503 1506 1509 1511 1512 1513 1514 1514 1515 1516
1424 1424 1423 1423 1422 1422 1422 1423 1423 1424 1426 1427 1429 1430 1432 1434 1436 1440 1443 1446 1449 1452 1455 1458 1461 1465 1469 1472 1477 1481 1485 1490 1494 1497 1502 1505 1508 1508 1509 1510 1511 1512 1513
1421 1420 1419 1419 1418 1418 1419 1419 1418 1419 1420 1422 1424 1425 1427 1429 1431 1433 1437 1440 1443 1447 1450 1453 1456 1460 1464 1466 1471 1476 1479 1483 1489 1493 1496 1499 1500 1503 1505 1506 1508 1509 1510
1418 1417 1416 1415 1415 1414 1414 1414 1415 1414 1415 1416 1418 1418 1420 1421 1423 1427 1431 1434 1437 1441 1444 1447 1451 1455 1459 1462 1466 1471 1475 1478 1482 1487 1491 1493 1494 1497 1500 1502 1504 1505 1506
1416 1415 1413 1412 1412 1411 1410 1410 1410 1410 1410 1411 1412 1413 1415 1416 1419 1423 1425 1428 1432 1435 1438 1442 1446 1449 1453 1456 1460 1465 1471 1474 1476 1480 1485 1488 1490 1492 1494 1496 1499 1501 1502
1415 1413 1411 1409 1407 1407 1406 1406 1405 1405 1404 1406 1407 1408 1409 1411 1414 1416 1420 1423 1426 1429 1433 1436 1440 1443 1447 1451 1454 1460 1465 1469 1472 1476 1480 1482 1485 1487 1490 1491 1494 1496 1498
1414 1411 1409 1406 1405 1404 1403 1401 1400 1399 1400 1400 1401 1402 1403 1405 1407 1410 1414 1417 1420 1423 1426 1429 1434 1437 1441 1446 1450 1454 1459 1463 1467 1470 1475 1478 1481 1484 1487 1489 1490 1493 1494
1413 1410 1407 1404 1402 1400 1399 1397 1396 1395 1395 1395 1395 1397 1398 1400 1402 1405 1408 1411 1414 1416 1421 1424 1429 1432 1435 1439 1444 1449 1453 1458 1462 1466 1470 1474 1477 1481 1483 1485 1487 1489 1490
1412 1409 1405 1402 1400 1397 1395 1393 1391 1390 1390 1390 1390 1390 1393 1395 1397 1400 1403 1406 1408 1411 1415 1419 1422 1426 1430 1434 1438 1442 1447 1452 1457 1461 1465 1469 1473 1476 1479 1482 1484 1486 1486
1410 1406 1403 1400 1397 1394 1391 1389 1388 1386 1386 1385 1385 1385 1386 1389 1391 1394 1397 1399 1402 1406 1409 1413 1417 1421 1425 1429 1433 1437 1441 1446 1451 1456 1460 1464 1468 1471 1474 1477 1479 1481 1483
1408 1404 1399 1396 1392 1390 1388 1386 1384 1383 1382 1381 1381 1381 1382 1384 1386 1388 1391 1393 1396 1400 1404 1407 1411 1414 1418 1423 1427 1431 1435 1440 1445 1450 1454 1458 1463 1466 1469 1472 1474 1477 1478
1408 1403 1399 1394 1391 1388 1386 1383 1381 1379 1379 1378 1378 1378 1379 1380 1382 1384 1386 1388 1391 1394 1398 1402 1405 1408 1412 1417 1421 1425 1430 1434 1439 1443 1448 1452 1457 1461 1464 1467 1469 1472 1473
1406 1401 1397 1393 1390 1387 1384 1381 1379 1377 1376 1375 1375 1375 1376 1377 1378 1379 1381 1383 1386 1389 1393 1396 1399 1402 1406 1411 1416 1420 1424 1429 1434 1438 1442 1446 1451 1455 1458 1461 1464 1466 1469
1405 1400 1395 1391 1387 1384 1381 1379 1377 1375 1374 1373 1372 1372 1373 1374 1375 1376 1377 1379 1380 1383 1386 1390 1393 1397 1400 1405 1410 1415 1419 1423 1428 1433 1436 1441 1445 1449 1452 1456 1459 1461 1464
1403 1398 1394 1390 1386 1382 1379 1377 1374 1373 1372 1371 1371 1370 1371 1371 1372 1372 1373 1375 1376 1378 1382 1385 1388 1391 1395 1399 1404 1409 1413 1418 1422 1427 1431 1435 1440 1443 1447 1450 1453 1456 1458
1402 1397 1393 1388 1384 1381 1378 1375 1373 1371 1369 1368 1368 1368 1368 1369 1369 1369 1370 1371 1373 1375 1377 1380 1383 1386 1390 1395 1399 1404 1408 1412 1417 1421 1426 1430 1435 1438 1442 1445 1448 1451 1453
1400 1395 1391 1386 1382 1379 1376 1374 1372 1370 1368 1367 1366 1366 1366 1366 1367 1367 1367 1367 1368 1370 1373 1375 1379 1382 1386 1390 1394 1399 1403 1407 1411 1416 1421 1425 1429 1433 1436 1440 1443 1445 1447
1397 1393 1389 1384 1380 1377 1374 1372 1370 1368 1366 1365 1365 1364 1364 1364 1364 1364 1364 1365 1366 1368 1369 1371 1373 1377 1381 1385 1389 1394 1399 1402 1407 1411 1415 1419 1423 1427 1431 1434 1437 1439 1441
1395 1391 1387 1383 1379 1375 1372 1370 1368 1366 1365 1364 1363 1363 1362 1362 1362 1362 1362 1363 1363 1364 1366 1368 1370 1372 1376 1380 1384 1389 1393 1397 1401 1406 1410 1414 1418 1421 1425 1429 1431 1434 1436
1393 1388 1384 1380 1376 1373 1370 1368 1365 1364 1363 1362 1361 1360 1360 1359 1359 1359 1360 1360 1361 1361 1362 1364 1366 1368 1371 1375 1380 1385 1388 1392 1396 1400 1405 1409 1413 1416 1420 1423 1426 1428 1430
1389 1385 1381 1377 1374 1371 1368 1366 1363 1362 1360 1359 1359 1358 1357 1357 1357 1357 1357 1357 1357 1358 1359 1361 1363 1365 1368 1371 1375 1380 1383 1387 1391 1395 1399 1403 1407 1411 1414 1418 1420 1423 1426
1386 1382 1378 1374 1371 1369 1366 1363 1361 1359 1358 1357 1356 1355 1355 1355 1354 1354 1354 1354 1354 1355 1356 1358 1360 1362 1364 1367 1371 1375 1379 1383 1386 1390 1393 1398 1402 1406 1409 1413 1416 1419 1422
1382 1379 1375 1371 1368 1365 1363 1360 1358 1357 1355 1354 1353 1352 1352 1352 1351 1351 1351 1351 1351 1352 1353 1355 1356 1358 1361 1364 1367 1371 1375 1378 1382 1385 1389 1393 1397 1401 1405 1408 1411 1414 1417
1377 1374 1371 1367 1364 1362 1359 1357 1355 1354 1352 1350 1350 1349 1348 1348 1348 1348 1348 1348 1348 1349 1351 1352 1353 1355 1357 1360 1363 1366 1370 1373 1377 1381 1385 1389 1393 1396 1400 1403 1407 1410 1412
1373 1370 1367 1364 1361 1358 1355 1353 1352 1350 1348 1347 1346 1345 1345 1344 1344 1344 1345 1345 1346 1347 1348 1350 1351 1352 1354 1356 1360 1362 1365 1368 1372 1376 1380 1384 1387 1391 1395 1399 1402 1405 1408
1370 1366 1363 1360 1357 1354 1352 1350 1349 1347 1345 1344 1343 1342 1341 1341 1341 1340 1341 1342 1344 1345 1346 1347 1349 1350 1352 1354 1356 1359 1362 1365 1369 1372 1375 1379 1383 1386 1390 1393 1397 1400 1404